When you browse on this site, cookies collect data to enhance your experience and personalize the content and advertising you see.
Visit our Privacy Policy to learn more. By continuing to use the site, you agree to this use of cookies and data.
  • In Sweden
  • List of Countries
  • For 7 days
  • Water Temperature
  • Weather Map
  • Weather Widgets
  • user-avatar
    Login

    Hourly Weather As-Savira

    Today, 26 February, Wednesday

    Time Temperature Precipitation Wind Pressure Humidity
    00:00 +15°C° 0 mm 0 mps 738 mmHg 27%
    01:00 +15°C° 0 mm 0 mps 737 mmHg 28%
    02:00 +16°C° 0 mm 1 mps 737 mmHg 28%
    03:00 +16°C° 0 mm 1 mps 736 mmHg 28%
    04:00 +16°C° 0 mm 1 mps 736 mmHg 28%
    05:00 +16°C° 0 mm 2 mps 736 mmHg 27%
    06:00 +16°C° 0 mm 2 mps 736 mmHg 27%
    07:00 +16°C° 0 mm 2 mps 736 mmHg 27%
    08:00 +17°C° 0 mm 2 mps 736 mmHg 25%
    09:00 +19°C° 0 mm 2 mps 737 mmHg 23%
    10:00 +20°C° 0 mm 2 mps 737 mmHg 21%
    11:00 +21°C° 0 mm 2 mps 737 mmHg 20%
    12:00 +23°C° 0 mm 2 mps 736 mmHg 19%
    13:00 +24°C° 0 mm 2 mps 736 mmHg 17%
    14:00 +24°C° 0 mm 2 mps 736 mmHg 17%
    15:00 +25°C° 0 mm 3 mps 735 mmHg 16%
    16:00 +25°C° 0 mm 3 mps 735 mmHg 15%
    17:00 +24°C° 0 mm 2 mps 735 mmHg 17%
    18:00 +23°C° 0 mm 2 mps 735 mmHg 19%
    19:00 +21°C° 0 mm 1 mps 735 mmHg 21%
    20:00 +20°C° 0 mm 1 mps 735 mmHg 22%
    21:00 +20°C° 0 mm 1 mps 736 mmHg 23%
    22:00 +19°C° 0 mm 1 mps 736 mmHg 24%
    23:00 +18°C° 0 mm 1 mps 736 mmHg 25%

    Tomorrow, 27 February, Thursday

    Time Temperature Precipitation Wind Pressure Humidity
    00:00 +17°C° 0 mm 2 mps 736 mmHg 26%
    01:00 +17°C° 0 mm 2 mps 736 mmHg 27%
    02:00 +16°C° 0 mm 2 mps 736 mmHg 28%
    03:00 +16°C° 0 mm 2 mps 736 mmHg 30%
    04:00 +15°C° 0 mm 2 mps 736 mmHg 32%
    05:00 +15°C° 0 mm 2 mps 736 mmHg 33%
    06:00 +14°C° 0 mm 2 mps 737 mmHg 34%
    07:00 +14°C° 0 mm 2 mps 737 mmHg 36%
    08:00 +14°C° 0 mm 3 mps 738 mmHg 36%
    09:00 +15°C° 0 mm 4 mps 738 mmHg 37%
    10:00 +17°C° 0 mm 6 mps 739 mmHg 38%
    11:00 +19°C° 0 mm 5 mps 739 mmHg 35%
    12:00 +20°C° 0 mm 4 mps 739 mmHg 32%
    13:00 +22°C° 0 mm 3 mps 739 mmHg 29%
    14:00 +22°C° 0 mm 3 mps 739 mmHg 28%
    15:00 +23°C° 0 mm 2 mps 738 mmHg 27%
    16:00 +24°C° 0 mm 2 mps 738 mmHg 27%
    17:00 +22°C° 0 mm 3 mps 738 mmHg 31%
    18:00 +21°C° 0 mm 4 mps 739 mmHg 36%
    19:00 +20°C° 0 mm 5 mps 739 mmHg 41%
    20:00 +17°C° 0 mm 5 mps 739 mmHg 44%
    21:00 +16°C° 0 mm 6 mps 740 mmHg 48%
    22:00 +15°C° 0 mm 6 mps 740 mmHg 51%
    23:00 +15°C° 0 mm 5 mps 740 mmHg 55%

    Day after tomorrow, 28 February, Friday

    Time Temperature Precipitation Wind Pressure Humidity
    00:00 +14°C° 0 mm 5 mps 740 mmHg 59%
    01:00 +13°C° 0 mm 4 mps 740 mmHg 63%
    02:00 +13°C° 0 mm 4 mps 740 mmHg 65%
    03:00 +12°C° 0 mm 4 mps 740 mmHg 67%
    04:00 +12°C° 0 mm 3 mps 740 mmHg 69%
    05:00 +12°C° 0 mm 3 mps 740 mmHg 70%
    06:00 +12°C° 0 mm 3 mps 740 mmHg 71%
    07:00 +11°C° 0 mm 3 mps 740 mmHg 73%
    08:00 +13°C° 0 mm 4 mps 741 mmHg 68%
    09:00 +14°C° 0 mm 4 mps 741 mmHg 63%
    10:00 +17°C° 0 mm 4 mps 742 mmHg 57%
    11:00 +18°C° 0 mm 3 mps 742 mmHg 50%
    12:00 +20°C° 0 mm 3 mps 741 mmHg 42%
    13:00 +21°C° 0 mm 2 mps 741 mmHg 35%
    14:00 +23°C° 0 mm 2 mps 741 mmHg 32%
    15:00 +23°C° 0 mm 2 mps 740 mmHg 29%
    16:00 +24°C° 0 mm 2 mps 740 mmHg 27%
    17:00 +23°C° 0 mm 2 mps 740 mmHg 28%
    18:00 +21°C° 0 mm 2 mps 740 mmHg 29%
    19:00 +20°C° 0 mm 2 mps 740 mmHg 30%
    20:00 +19°C° 0 mm 3 mps 740 mmHg 31%
    21:00 +19°C° 0 mm 3 mps 741 mmHg 31%
    22:00 +18°C° 0 mm 4 mps 741 mmHg 32%
    23:00 +17°C° 0 mm 3 mps 741 mmHg 33%

    29 February, Saturday

    Time Temperature Precipitation Wind Pressure Humidity
    00:00 +17°C° 0 mm 3 mps 741 mmHg 34%
    01:00 +16°C° 0 mm 3 mps 740 mmHg 36%
    02:00 +16°C° 0 mm 3 mps 740 mmHg 37%
    03:00 +14°C° 0 mm 3 mps 740 mmHg 39%
    04:00 +14°C° 0 mm 3 mps 739 mmHg 41%
    05:00 +14°C° 0 mm 3 mps 739 mmHg 43%
    06:00 +13°C° 0 mm 3 mps 739 mmHg 44%
    07:00 +13°C° 0 mm 3 mps 739 mmHg 46%
    08:00 +16°C° 0 mm 3 mps 739 mmHg 42%
    09:00 +17°C° 0 mm 3 mps 740 mmHg 38%
    10:00 +19°C° 0 mm 3 mps 740 mmHg 34%
    11:00 +20°C° 0 mm 3 mps 740 mmHg 31%
    12:00 +23°C° 0 mm 2 mps 739 mmHg 27%
    13:00 +24°C° 0 mm 2 mps 739 mmHg 24%
    14:00 +25°C° 0 mm 2 mps 738 mmHg 23%
    15:00 +25°C° 0 mm 2 mps 738 mmHg 21%
    16:00 +26°C° 0 mm 2 mps 737 mmHg 20%
    17:00 +24°C° 0 mm 2 mps 737 mmHg 22%
    18:00 +23°C° 0 mm 2 mps 737 mmHg 24%
    19:00 +21°C° 0 mm 2 mps 737 mmHg 26%
    20:00 +20°C° 0 mm 2 mps 738 mmHg 27%
    21:00 +19°C° 0 mm 2 mps 738 mmHg 28%
    22:00 +19°C° 0 mm 2 mps 738 mmHg 29%
    23:00 +19°C° 0 mm 1 mps 738 mmHg 31%

    1 March, Sunday

    Time Temperature Precipitation Wind Pressure Humidity
    00:00 +18°C° 0 mm 1 mps 738 mmHg 32%
    01:00 +16°C° 0 mm 0 mps 738 mmHg 33%
    02:00 +18°C° 0 mm 1 mps 737 mmHg 33%
    03:00 +17°C° 0 mm 2 mps 737 mmHg 32%
    04:00 +17°C° 0 mm 3 mps 737 mmHg 32%
    05:00 +17°C° 0 mm 2 mps 737 mmHg 33%
    06:00 +16°C° 0 mm 2 mps 737 mmHg 34%
    07:00 +16°C° 0 mm 2 mps 737 mmHg 35%
    08:00 +18°C° 0 mm 2 mps 738 mmHg 31%
    09:00 +20°C° 0 mm 2 mps 738 mmHg 27%
    10:00 +21°C° 0 mm 2 mps 739 mmHg 23%
    11:00 +24°C° 0 mm 2 mps 738 mmHg 21%
    12:00 +25°C° 0 mm 2 mps 738 mmHg 18%
    13:00 +26°C° 0 mm 2 mps 738 mmHg 16%
    14:00 +27°C° 0 mm 1 mps 737 mmHg 15%
    15:00 +27°C° 0 mm 1 mps 737 mmHg 14%
    16:00 +27°C° 0 mm 1 mps 736 mmHg 14%
    17:00 +26°C° 0 mm 1 mps 736 mmHg 16%
    18:00 +22°C° 0 mm 0 mps 736 mmHg 18%
    19:00 +21°C° 0 mm 0 mps 737 mmHg 20%
    20:00 +20°C° 0 mm 0 mps 737 mmHg 21%
    21:00 +20°C° 0 mm 0 mps 737 mmHg 21%
    22:00 +21°C° 0 mm 1 mps 737 mmHg 22%
    23:00 +18°C° 0 mm 0 mps 737 mmHg 23%

    2 March, Monday

    Time Temperature Precipitation Wind Pressure Humidity
    00:00 +18°C° 0 mm 0 mps 737 mmHg 24%
    01:00 +17°C° 0 mm 0 mps 737 mmHg 25%
    02:00 +19°C° 0 mm 1 mps 737 mmHg 24%
    03:00 +18°C° 0 mm 2 mps 736 mmHg 24%
    04:00 +18°C° 0 mm 2 mps 736 mmHg 23%
    05:00 +18°C° 0 mm 3 mps 736 mmHg 23%
    06:00 +18°C° 0 mm 3 mps 736 mmHg 23%
    07:00 +17°C° 0 mm 3 mps 736 mmHg 22%
    08:00 +19°C° 0 mm 3 mps 736 mmHg 20%
    09:00 +21°C° 0 mm 3 mps 737 mmHg 18%
    10:00 +22°C° 0 mm 3 mps 737 mmHg 16%
    11:00 +25°C° 0 mm 3 mps 737 mmHg 15%
    12:00 +26°C° 0 mm 3 mps 736 mmHg 13%
    13:00 +28°C° 0 mm 2 mps 736 mmHg 12%
    14:00 +28°C° 0 mm 3 mps 735 mmHg 12%
    15:00 +29°C° 0 mm 3 mps 735 mmHg 11%
    16:00 +29°C° 0 mm 3 mps 734 mmHg 11%
    17:00 +27°C° 0 mm 2 mps 734 mmHg 13%
    18:00 +26°C° 0 mm 2 mps 734 mmHg 14%
    19:00 +24°C° 0 mm 1 mps 734 mmHg 16%
    20:00 +24°C° 0 mm 1 mps 734 mmHg 16%
    21:00 +23°C° 0 mm 2 mps 734 mmHg 17%
    22:00 +23°C° 0 mm 2 mps 734 mmHg 17%
    23:00 +23°C° 0 mm 2 mps 734 mmHg 17%
    Show more